Year,Month,Day,Hour,Minute,Value (Times are PST for windgust in km/hr)
2012,02,29,00,00,38.60
2012,02,29,00,01,41.80
2012,02,29,00,02,27.40
2012,02,29,00,03,22.50
2012,02,29,00,04,25.70
2012,02,29,00,05,19.30
2012,02,29,00,06,19.30
2012,02,29,00,07,24.20
2012,02,29,00,08,17.70
2012,02,29,00,09,19.30
2012,02,29,00,10,25.70
2012,02,29,00,11,16.10
2012,02,29,00,12,25.70
2012,02,29,00,13,19.30
2012,02,29,00,14,17.70
2012,02,29,00,15,14.50
2012,02,29,00,16,20.90
2012,02,29,00,17,19.30
2012,02,29,00,18,9.60
2012,02,29,00,19,8.10
2012,02,29,00,20,9.60
2012,02,29,00,21,25.70
2012,02,29,00,22,22.50
2012,02,29,00,23,11.30
2012,02,29,00,24,8.10
2012,02,29,00,25,20.90
2012,02,29,00,26,14.50
2012,02,29,00,27,11.30
2012,02,29,00,28,19.30
2012,02,29,00,29,14.50
2012,02,29,00,30,16.10
2012,02,29,00,31,11.30
2012,02,29,00,32,11.30
2012,02,29,00,33,16.10
2012,02,29,00,34,11.30
2012,02,29,00,35,14.50
2012,02,29,00,36,16.10
2012,02,29,00,37,9.60
2012,02,29,00,38,8.10
2012,02,29,00,39,4.80
2012,02,29,00,40,11.30
2012,02,29,00,41,1.60
2012,02,29,00,42,8.10
2012,02,29,00,43,9.60
2012,02,29,00,44,8.10
2012,02,29,00,45,6.40
2012,02,29,00,46,3.20
2012,02,29,00,47,3.20
2012,02,29,00,48,4.80
2012,02,29,00,49,1.60
2012,02,29,00,50,3.20
2012,02,29,00,53,1.60
2012,02,29,00,54,3.20
2012,02,29,00,55,1.60
2012,02,29,00,56,1.60
2012,02,29,00,58,1.60
2012,02,29,00,59,6.40
2012,02,29,01,00,4.80
2012,02,29,01,01,4.80
2012,02,29,01,02,4.80
2012,02,29,01,03,4.80
2012,02,29,01,04,4.80
2012,02,29,01,05,6.40
2012,02,29,01,06,4.80
2012,02,29,01,07,4.80
2012,02,29,01,08,3.20
2012,02,29,01,09,3.20
2012,02,29,01,10,4.80
2012,02,29,01,11,3.20
2012,02,29,01,12,3.20
2012,02,29,01,13,3.20
2012,02,29,01,14,4.80
2012,02,29,01,15,4.80
2012,02,29,01,16,3.20
2012,02,29,01,17,6.40
2012,02,29,01,18,8.10
2012,02,29,01,19,9.60
2012,02,29,01,20,9.60
2012,02,29,01,21,4.80
2012,02,29,01,22,6.40
2012,02,29,01,23,3.20
2012,02,29,01,24,4.80
2012,02,29,01,25,4.80
2012,02,29,01,26,4.80
2012,02,29,01,27,6.40
2012,02,29,01,28,6.40
2012,02,29,01,29,4.80
2012,02,29,01,30,1.60
2012,02,29,01,31,1.60
2012,02,29,01,32,1.60
2012,02,29,01,33,4.80
2012,02,29,01,34,4.80
2012,02,29,01,35,6.40
2012,02,29,01,36,6.40
2012,02,29,01,37,4.80
2012,02,29,01,38,1.60
2012,02,29,01,39,6.40
2012,02,29,01,40,8.10
2012,02,29,01,41,8.10
2012,02,29,01,42,8.10
2012,02,29,01,43,8.10
2012,02,29,01,44,6.40
2012,02,29,01,45,6.40
2012,02,29,01,46,8.10
2012,02,29,01,47,4.80
2012,02,29,01,48,6.40
2012,02,29,01,49,3.20
2012,02,29,01,50,3.20
2012,02,29,01,51,1.60
2012,02,29,01,52,1.60
2012,02,29,01,53,4.80
2012,02,29,01,54,4.80
2012,02,29,01,55,1.60
2012,02,29,01,56,1.60
2012,02,29,01,57,3.20
2012,02,29,01,58,4.80
2012,02,29,01,59,6.40
2012,02,29,02,00,6.40
2012,02,29,02,01,4.80
2012,02,29,02,02,4.80
2012,02,29,02,03,3.20
2012,02,29,02,04,6.40
2012,02,29,02,05,14.50
2012,02,29,02,06,14.50
2012,02,29,02,07,11.30
2012,02,29,02,08,14.50
2012,02,29,02,09,11.30
2012,02,29,02,10,14.50
2012,02,29,02,11,9.60
2012,02,29,02,12,11.30
2012,02,29,02,13,9.60
2012,02,29,02,14,8.10
2012,02,29,02,15,8.10
2012,02,29,02,16,6.40
2012,02,29,02,17,6.40
2012,02,29,02,18,6.40
2012,02,29,02,19,4.80
2012,02,29,02,20,4.80
2012,02,29,02,21,4.80
2012,02,29,02,22,4.80
2012,02,29,02,23,3.20
2012,02,29,02,24,4.80
2012,02,29,02,25,6.40
2012,02,29,02,26,3.20
2012,02,29,02,27,6.40
2012,02,29,02,28,3.20
2012,02,29,02,29,6.40
2012,02,29,02,30,4.80
2012,02,29,02,31,4.80
2012,02,29,02,32,3.20
2012,02,29,02,33,3.20
2012,02,29,02,34,1.60
2012,02,29,02,35,3.20
2012,02,29,02,37,4.80
2012,02,29,02,38,4.80
2012,02,29,02,39,1.60
2012,02,29,02,40,1.60
2012,02,29,02,41,3.20
2012,02,29,02,42,1.60
2012,02,29,02,43,1.60
2012,02,29,02,44,3.20
2012,02,29,02,45,3.20
2012,02,29,02,46,1.60
2012,02,29,02,47,1.60
2012,02,29,02,48,1.60
2012,02,29,02,49,1.60
2012,02,29,02,50,1.60
2012,02,29,02,51,1.60
2012,02,29,02,53,1.60
2012,02,29,02,54,1.60
2012,02,29,02,56,1.60
2012,02,29,02,57,1.60
2012,02,29,03,01,1.60
2012,02,29,03,02,3.20
2012,02,29,03,03,1.60
2012,02,29,03,04,3.20
2012,02,29,03,05,3.20
2012,02,29,03,06,3.20
2012,02,29,03,07,4.80
2012,02,29,03,08,6.40
2012,02,29,03,09,4.80
2012,02,29,03,10,4.80
2012,02,29,03,11,6.40
2012,02,29,03,12,4.80
2012,02,29,03,13,4.80
2012,02,29,03,14,3.20
2012,02,29,03,15,3.20
2012,02,29,03,16,3.20
2012,02,29,03,17,4.80
2012,02,29,03,18,4.80
2012,02,29,03,19,4.80
2012,02,29,03,20,4.80
2012,02,29,03,21,3.20
2012,02,29,03,22,4.80
2012,02,29,03,23,3.20
2012,02,29,03,24,3.20
2012,02,29,03,25,4.80
2012,02,29,03,26,1.60
2012,02,29,03,27,1.60
2012,02,29,03,28,6.40
2012,02,29,03,29,4.80
2012,02,29,03,30,3.20
2012,02,29,03,31,4.80
2012,02,29,03,32,4.80
2012,02,29,03,33,4.80
2012,02,29,03,34,3.20
2012,02,29,03,35,4.80
2012,02,29,03,36,4.80
2012,02,29,03,37,4.80
2012,02,29,03,38,6.40
2012,02,29,03,39,6.40
2012,02,29,03,40,6.40
2012,02,29,03,41,4.80
2012,02,29,03,42,4.80
2012,02,29,03,43,4.80
2012,02,29,03,44,3.20
2012,02,29,03,45,3.20
2012,02,29,03,46,3.20
2012,02,29,03,47,4.80
2012,02,29,03,48,8.10
2012,02,29,03,49,6.40
2012,02,29,03,50,6.40
2012,02,29,03,51,4.80
2012,02,29,03,52,3.20
2012,02,29,03,58,1.60
2012,02,29,04,06,1.60
2012,02,29,04,07,1.60
2012,02,29,04,08,1.60
2012,02,29,04,11,1.60
2012,02,29,04,12,1.60
2012,02,29,04,34,1.60
2012,02,29,04,45,1.60
2012,02,29,04,46,1.60
2012,02,29,04,47,1.60
2012,02,29,05,05,1.60
2012,02,29,05,06,1.60
2012,02,29,05,08,1.60
2012,02,29,05,10,1.60
2012,02,29,05,11,3.20
2012,02,29,05,12,3.20
2012,02,29,05,13,4.80
2012,02,29,05,14,4.80
2012,02,29,05,15,3.20
2012,02,29,05,16,3.20
2012,02,29,05,17,1.60
2012,02,29,05,18,4.80
2012,02,29,05,19,3.20
2012,02,29,05,20,1.60
2012,02,29,05,21,3.20
2012,02,29,05,22,3.20
2012,02,29,05,23,3.20
2012,02,29,05,24,4.80
2012,02,29,05,25,4.80
2012,02,29,05,26,4.80
2012,02,29,05,27,3.20
2012,02,29,05,28,4.80
2012,02,29,05,29,4.80
2012,02,29,05,30,4.80
2012,02,29,05,31,4.80
2012,02,29,05,32,4.80
2012,02,29,05,33,3.20
2012,02,29,05,34,4.80
2012,02,29,05,35,3.20
2012,02,29,05,36,4.80
2012,02,29,05,37,4.80
2012,02,29,05,38,4.80
2012,02,29,05,39,8.10
2012,02,29,05,40,6.40
2012,02,29,05,41,6.40
2012,02,29,05,42,6.40
2012,02,29,05,43,8.10
2012,02,29,05,44,8.10
2012,02,29,05,45,8.10
2012,02,29,05,46,6.40
2012,02,29,05,47,6.40
2012,02,29,05,48,6.40
2012,02,29,05,49,6.40
2012,02,29,05,50,9.60
2012,02,29,05,51,9.60
2012,02,29,05,52,8.10
2012,02,29,05,53,8.10
2012,02,29,05,54,8.10
2012,02,29,05,55,8.10
2012,02,29,05,56,8.10
2012,02,29,05,57,4.80
2012,02,29,05,58,6.40
2012,02,29,05,59,6.40
2012,02,29,06,00,6.40
2012,02,29,06,01,3.20
2012,02,29,06,02,3.20
2012,02,29,06,03,3.20
2012,02,29,06,04,3.20
2012,02,29,06,05,3.20
2012,02,29,06,06,4.80
2012,02,29,06,07,3.20
2012,02,29,06,08,3.20
2012,02,29,06,09,4.80
2012,02,29,06,10,6.40
2012,02,29,06,11,4.80
2012,02,29,06,12,6.40
2012,02,29,06,13,6.40
2012,02,29,06,14,6.40
2012,02,29,06,15,8.10
2012,02,29,06,16,8.10
2012,02,29,06,17,6.40
2012,02,29,06,18,1.60
2012,02,29,06,19,3.20
2012,02,29,06,20,6.40
2012,02,29,06,21,8.10
2012,02,29,06,22,4.80
2012,02,29,06,23,3.20
2012,02,29,06,25,3.20
2012,02,29,06,26,3.20
2012,02,29,06,27,4.80
2012,02,29,06,28,3.20
2012,02,29,06,29,3.20
2012,02,29,06,30,4.80
2012,02,29,06,31,11.30
2012,02,29,06,32,19.30
2012,02,29,06,33,11.30
2012,02,29,06,34,16.10
2012,02,29,06,35,16.10
2012,02,29,06,36,12.90
2012,02,29,06,37,8.10
2012,02,29,06,38,9.60
2012,02,29,06,39,16.10
2012,02,29,06,40,16.10
2012,02,29,06,41,24.20
2012,02,29,06,42,9.60
2012,02,29,06,43,19.30
2012,02,29,06,44,19.30
2012,02,29,06,45,19.30
2012,02,29,06,46,17.70
2012,02,29,06,47,19.30
2012,02,29,06,48,22.50
2012,02,29,06,49,24.20
2012,02,29,06,50,22.50
2012,02,29,06,51,25.70
2012,02,29,06,52,22.50
2012,02,29,06,53,12.90
2012,02,29,06,54,16.10
2012,02,29,06,55,14.50
2012,02,29,06,56,19.30
2012,02,29,06,57,19.30
2012,02,29,06,58,19.30
2012,02,29,06,59,16.10
2012,02,29,07,00,16.10
2012,02,29,07,01,11.30
2012,02,29,07,02,22.50
2012,02,29,07,03,19.30
2012,02,29,07,04,11.30
2012,02,29,07,05,24.20
2012,02,29,07,06,17.70
2012,02,29,07,07,17.70
2012,02,29,07,08,19.30
2012,02,29,07,09,17.70
2012,02,29,07,10,16.10
2012,02,29,07,11,19.30
2012,02,29,07,12,24.20
2012,02,29,07,13,16.10
2012,02,29,07,14,14.50
2012,02,29,07,15,14.50
2012,02,29,07,16,17.70
2012,02,29,07,17,16.10
2012,02,29,07,18,16.10
2012,02,29,07,19,29.00
2012,02,29,07,20,14.50
2012,02,29,07,21,14.50
2012,02,29,07,22,20.90
2012,02,29,07,23,16.10
2012,02,29,07,24,16.10
2012,02,29,07,25,12.90
2012,02,29,07,26,19.30
2012,02,29,07,27,24.20
2012,02,29,07,28,17.70
2012,02,29,07,29,19.30
2012,02,29,07,30,9.60
2012,02,29,07,31,19.30
2012,02,29,07,32,16.10
2012,02,29,07,33,20.90
2012,02,29,07,34,20.90
2012,02,29,07,35,16.10
2012,02,29,07,36,19.30
2012,02,29,07,37,14.50
2012,02,29,07,38,22.50
2012,02,29,07,39,30.60
2012,02,29,07,40,24.20
2012,02,29,07,41,22.50
2012,02,29,07,42,25.70
2012,02,29,07,43,24.20
2012,02,29,07,44,19.30
2012,02,29,07,45,22.50
2012,02,29,07,46,22.50
2012,02,29,07,47,22.50
2012,02,29,07,48,33.80
2012,02,29,07,49,35.40
2012,02,29,07,50,29.00
2012,02,29,07,51,24.20
2012,02,29,07,52,40.20
2012,02,29,07,53,35.40
2012,02,29,07,54,37.00
2012,02,29,07,55,33.80
2012,02,29,07,56,20.90
2012,02,29,07,57,20.90
2012,02,29,07,58,29.00
2012,02,29,07,59,27.40
2012,02,29,08,00,32.20
2012,02,29,08,01,33.80
2012,02,29,08,02,29.00
2012,02,29,08,03,30.60
2012,02,29,08,04,33.80
2012,02,29,08,05,32.20
2012,02,29,08,06,27.40
2012,02,29,08,07,32.20
2012,02,29,08,08,17.70
2012,02,29,08,09,19.30
2012,02,29,08,10,25.70
2012,02,29,08,11,24.20
2012,02,29,08,12,37.00
2012,02,29,08,13,29.00
2012,02,29,08,14,38.60
2012,02,29,08,15,22.50
2012,02,29,08,16,40.20
2012,02,29,08,17,35.40
2012,02,29,08,18,35.40
2012,02,29,08,19,22.50
2012,02,29,08,20,20.90
2012,02,29,08,21,17.70
2012,02,29,08,22,20.90
2012,02,29,08,23,25.70
2012,02,29,08,24,19.30
2012,02,29,08,25,20.90
2012,02,29,08,26,30.60
2012,02,29,08,27,22.50
2012,02,29,08,28,25.70
2012,02,29,08,29,25.70
2012,02,29,08,30,38.60
2012,02,29,08,31,37.00
2012,02,29,08,32,25.70
2012,02,29,08,33,30.60
2012,02,29,08,34,32.20
2012,02,29,08,35,27.40
2012,02,29,08,36,25.70
2012,02,29,08,37,25.70
2012,02,29,08,38,37.00
2012,02,29,08,39,24.20
2012,02,29,08,40,33.80
2012,02,29,08,41,53.10
2012,02,29,08,42,40.20
2012,02,29,08,43,45.10
2012,02,29,08,44,41.80
2012,02,29,08,45,48.30
2012,02,29,08,46,53.10
2012,02,29,08,47,41.80
2012,02,29,08,48,32.20
2012,02,29,08,49,53.10
2012,02,29,08,50,33.80
2012,02,29,08,51,43.50
2012,02,29,08,52,33.80
2012,02,29,08,53,32.20
2012,02,29,08,54,43.50
2012,02,29,08,55,32.20
2012,02,29,08,56,29.00
2012,02,29,08,57,25.70
2012,02,29,08,58,41.80
2012,02,29,08,59,43.50
2012,02,29,09,00,54.70
2012,02,29,09,01,45.10
2012,02,29,09,02,37.00
2012,02,29,09,03,48.30
2012,02,29,09,04,32.20
2012,02,29,09,05,41.80
2012,02,29,09,06,38.60
2012,02,29,09,07,38.60
2012,02,29,09,08,33.80
2012,02,29,09,09,37.00
2012,02,29,09,10,48.30
2012,02,29,09,11,40.20
2012,02,29,09,12,38.60
2012,02,29,09,13,32.20
2012,02,29,09,14,35.40
2012,02,29,09,15,32.20
2012,02,29,09,16,32.20
2012,02,29,09,17,33.80
2012,02,29,09,18,45.10
2012,02,29,09,19,33.80
2012,02,29,09,20,46.70
2012,02,29,09,21,41.80
2012,02,29,09,22,32.20
2012,02,29,09,23,37.00
2012,02,29,09,24,51.50
2012,02,29,09,25,48.30
2012,02,29,09,26,38.60
2012,02,29,09,27,30.60
2012,02,29,09,28,22.50
2012,02,29,09,29,38.60
2012,02,29,09,30,37.00
2012,02,29,09,31,30.60
2012,02,29,09,32,37.00
2012,02,29,09,33,35.40
2012,02,29,09,34,27.40
2012,02,29,09,35,37.00
2012,02,29,09,36,40.20
2012,02,29,09,37,30.60
2012,02,29,09,38,40.20
2012,02,29,09,39,37.00
2012,02,29,09,40,32.20
2012,02,29,09,41,43.50
2012,02,29,09,42,43.50
2012,02,29,09,43,40.20
2012,02,29,09,44,30.60
2012,02,29,09,45,43.50
2012,02,29,09,46,45.10
2012,02,29,09,47,32.20
2012,02,29,09,48,17.70
2012,02,29,09,49,30.60
2012,02,29,09,50,25.70
2012,02,29,09,51,19.30
2012,02,29,09,52,35.40
2012,02,29,09,53,49.90
2012,02,29,09,54,24.20
2012,02,29,09,55,27.40
2012,02,29,09,56,20.90
2012,02,29,09,57,40.20
2012,02,29,09,58,40.20
2012,02,29,09,59,45.10
2012,02,29,10,00,27.40
2012,02,29,10,01,29.00
2012,02,29,10,02,30.60
2012,02,29,10,03,27.40
2012,02,29,10,04,33.80
2012,02,29,10,05,33.80
2012,02,29,10,06,37.00
2012,02,29,10,07,33.80
2012,02,29,10,08,40.20
2012,02,29,10,09,33.80
2012,02,29,10,10,32.20
2012,02,29,10,11,25.70
2012,02,29,10,12,30.60
2012,02,29,10,13,22.50
2012,02,29,10,14,19.30
2012,02,29,10,15,24.20
2012,02,29,10,16,27.40
2012,02,29,10,17,24.20
2012,02,29,10,18,29.00
2012,02,29,10,19,27.40
2012,02,29,10,20,30.60
2012,02,29,10,21,32.20
2012,02,29,10,22,37.00
2012,02,29,10,23,24.20
2012,02,29,10,24,32.20
2012,02,29,10,25,24.20
2012,02,29,10,26,29.00
2012,02,29,10,27,20.90
2012,02,29,10,28,17.70
2012,02,29,10,29,29.00
2012,02,29,10,30,25.70
2012,02,29,10,31,29.00
2012,02,29,10,32,25.70
2012,02,29,10,33,25.70
2012,02,29,10,34,24.20
2012,02,29,10,35,32.20
2012,02,29,10,36,29.00
2012,02,29,10,37,32.20
2012,02,29,10,38,35.40
2012,02,29,10,39,29.00
2012,02,29,10,40,29.00
2012,02,29,10,41,29.00
2012,02,29,10,42,25.70
2012,02,29,10,43,22.50
2012,02,29,10,44,24.20
2012,02,29,10,45,29.00
2012,02,29,10,46,27.40
2012,02,29,10,47,27.40
2012,02,29,10,48,37.00
2012,02,29,10,49,27.40
2012,02,29,10,50,32.20
2012,02,29,10,51,30.60
2012,02,29,10,52,24.20
2012,02,29,10,53,38.60
2012,02,29,10,54,33.80
2012,02,29,10,55,33.80
2012,02,29,10,56,32.20
2012,02,29,10,57,33.80
2012,02,29,10,58,33.80
2012,02,29,10,59,30.60
2012,02,29,11,00,30.60
2012,02,29,11,01,43.50
2012,02,29,11,02,29.00
2012,02,29,11,03,38.60
2012,02,29,11,04,29.00
2012,02,29,11,05,35.40
2012,02,29,11,06,32.20
2012,02,29,11,07,25.70
2012,02,29,11,08,33.80
2012,02,29,11,09,35.40
2012,02,29,11,10,27.40
2012,02,29,11,11,22.50
2012,02,29,11,12,17.70
2012,02,29,11,13,25.70
2012,02,29,11,14,27.40
2012,02,29,11,15,30.60
2012,02,29,11,16,22.50
2012,02,29,11,17,27.40
2012,02,29,11,18,24.20
2012,02,29,11,19,27.40
2012,02,29,11,20,24.20
2012,02,29,11,21,24.20
2012,02,29,11,22,20.90
2012,02,29,11,23,29.00
2012,02,29,11,24,22.50
2012,02,29,11,25,24.20
2012,02,29,11,26,24.20
2012,02,29,11,27,20.90
2012,02,29,11,28,24.20
2012,02,29,11,29,24.20
2012,02,29,11,30,22.50
2012,02,29,11,31,20.90
2012,02,29,11,32,16.10
2012,02,29,11,33,11.30
2012,02,29,11,34,25.70
2012,02,29,11,35,25.70
2012,02,29,11,36,20.90
2012,02,29,11,37,22.50
2012,02,29,11,38,19.30
2012,02,29,11,39,17.70
2012,02,29,11,40,22.50
2012,02,29,11,41,17.70
2012,02,29,11,42,19.30
2012,02,29,11,43,19.30
2012,02,29,11,44,19.30
2012,02,29,11,45,19.30
2012,02,29,11,46,20.90
2012,02,29,11,47,22.50
2012,02,29,11,48,16.10
2012,02,29,11,49,17.70
2012,02,29,11,50,11.30
2012,02,29,11,51,16.10
2012,02,29,11,52,17.70
2012,02,29,11,53,19.30
2012,02,29,11,54,11.30
2012,02,29,11,55,8.10
2012,02,29,11,56,8.10
2012,02,29,11,57,16.10
2012,02,29,11,58,8.10
2012,02,29,11,59,8.10
2012,02,29,12,00,6.40
2012,02,29,12,01,9.60
2012,02,29,12,02,9.60
2012,02,29,12,03,8.10
2012,02,29,12,04,3.20
2012,02,29,12,05,4.80
2012,02,29,12,06,4.80
2012,02,29,12,07,6.40
2012,02,29,12,08,9.60
2012,02,29,12,09,11.30
2012,02,29,12,10,9.60
2012,02,29,12,11,8.10
2012,02,29,12,12,11.30
2012,02,29,12,13,11.30
2012,02,29,12,14,11.30
2012,02,29,12,15,4.80
2012,02,29,12,16,6.40
2012,02,29,12,17,11.30
2012,02,29,12,18,11.30
2012,02,29,12,19,9.60
2012,02,29,12,20,8.10
2012,02,29,12,21,6.40
2012,02,29,12,22,9.60
2012,02,29,12,23,6.40
2012,02,29,12,24,8.10
2012,02,29,12,25,3.20
2012,02,29,12,26,9.60
2012,02,29,12,27,6.40
2012,02,29,12,28,8.10
2012,02,29,12,29,8.10
2012,02,29,12,30,6.40
2012,02,29,12,31,8.10
2012,02,29,12,32,12.90
2012,02,29,12,33,9.60
2012,02,29,12,34,9.60
2012,02,29,12,35,8.10
2012,02,29,12,36,9.60
2012,02,29,12,37,6.40
2012,02,29,12,38,3.20
2012,02,29,12,39,4.80
2012,02,29,12,40,4.80
2012,02,29,12,41,8.10
2012,02,29,12,42,8.10
2012,02,29,12,43,9.60
2012,02,29,12,44,9.60
2012,02,29,12,45,6.40
2012,02,29,12,46,11.30
2012,02,29,12,47,16.10
2012,02,29,12,48,11.30
2012,02,29,12,49,9.60
2012,02,29,12,50,14.50
2012,02,29,12,51,8.10
2012,02,29,12,52,11.30
2012,02,29,12,53,9.60
2012,02,29,12,54,4.80
2012,02,29,12,55,6.40
2012,02,29,12,56,8.10
2012,02,29,12,57,6.40
2012,02,29,12,58,6.40
2012,02,29,12,59,9.60
2012,02,29,13,00,8.10
2012,02,29,13,01,8.10
2012,02,29,13,02,9.60
2012,02,29,13,03,11.30
2012,02,29,13,04,11.30
2012,02,29,13,05,17.70
2012,02,29,13,06,12.90
2012,02,29,13,07,8.10
2012,02,29,13,08,3.20
2012,02,29,13,09,6.40
2012,02,29,13,10,17.70
2012,02,29,13,11,19.30
2012,02,29,13,12,11.30
2012,02,29,13,13,16.10
2012,02,29,13,14,17.70
2012,02,29,13,15,17.70
2012,02,29,13,16,17.70
2012,02,29,13,17,16.10
2012,02,29,13,18,22.50
2012,02,29,13,19,20.90
2012,02,29,13,20,16.10
2012,02,29,13,21,17.70
2012,02,29,13,22,19.30
2012,02,29,13,23,11.30
2012,02,29,13,24,12.90
2012,02,29,13,25,11.30
2012,02,29,13,26,9.60
2012,02,29,13,27,11.30
2012,02,29,13,28,11.30
2012,02,29,13,29,9.60
2012,02,29,13,30,14.50
2012,02,29,13,31,16.10
2012,02,29,13,32,14.50
2012,02,29,13,33,14.50
2012,02,29,13,34,11.30
2012,02,29,13,35,11.30
2012,02,29,13,36,14.50
2012,02,29,13,37,16.10
2012,02,29,13,38,8.10
2012,02,29,13,39,9.60
2012,02,29,13,40,16.10
2012,02,29,13,41,20.90
2012,02,29,13,42,22.50
2012,02,29,13,43,20.90
2012,02,29,13,44,22.50
2012,02,29,13,45,20.90
2012,02,29,13,46,19.30
2012,02,29,13,47,16.10
2012,02,29,13,48,16.10
2012,02,29,13,49,19.30
2012,02,29,13,50,20.90
2012,02,29,13,51,20.90
2012,02,29,13,52,19.30
2012,02,29,13,53,14.50
2012,02,29,13,54,16.10
2012,02,29,13,55,11.30
2012,02,29,13,56,8.10
2012,02,29,13,57,9.60
2012,02,29,13,58,20.90
2012,02,29,13,59,16.10
2012,02,29,14,00,11.30
2012,02,29,14,01,9.60
2012,02,29,14,02,14.50
2012,02,29,14,03,14.50
2012,02,29,14,04,11.30
2012,02,29,14,05,17.70
2012,02,29,14,06,11.30
2012,02,29,14,07,12.90
2012,02,29,14,08,11.30
2012,02,29,14,09,11.30
2012,02,29,14,10,9.60
2012,02,29,14,11,16.10
2012,02,29,14,12,11.30
2012,02,29,14,13,9.60
2012,02,29,14,14,11.30
2012,02,29,14,15,9.60
2012,02,29,14,16,16.10
2012,02,29,14,17,17.70
2012,02,29,14,18,17.70
2012,02,29,14,19,22.50
2012,02,29,14,20,19.30
2012,02,29,14,21,17.70
2012,02,29,14,22,14.50
2012,02,29,14,23,11.30
2012,02,29,14,24,16.10
2012,02,29,14,25,9.60
2012,02,29,14,26,11.30
2012,02,29,14,27,16.10
2012,02,29,14,28,17.70
2012,02,29,14,29,17.70
2012,02,29,14,30,19.30
2012,02,29,14,31,14.50
2012,02,29,14,32,17.70
2012,02,29,14,33,25.70
2012,02,29,14,34,17.70
2012,02,29,14,35,19.30
2012,02,29,14,36,22.50
2012,02,29,14,37,14.50
2012,02,29,14,38,20.90
2012,02,29,14,39,20.90
2012,02,29,14,40,8.10
2012,02,29,14,41,19.30
2012,02,29,14,42,19.30
2012,02,29,14,43,19.30
2012,02,29,14,44,19.30
2012,02,29,14,45,17.70
2012,02,29,14,46,17.70
2012,02,29,14,47,17.70
2012,02,29,14,48,22.50
2012,02,29,14,49,9.60
2012,02,29,14,50,16.10
2012,02,29,14,51,19.30
2012,02,29,14,52,16.10
2012,02,29,14,53,14.50
2012,02,29,14,54,9.60
2012,02,29,14,55,6.40
2012,02,29,14,56,9.60
2012,02,29,14,57,14.50
2012,02,29,14,58,17.70
2012,02,29,14,59,11.30
2012,02,29,15,00,22.50
2012,02,29,15,01,11.30
2012,02,29,15,02,19.30
2012,02,29,15,03,16.10
2012,02,29,15,04,14.50
2012,02,29,15,05,16.10
2012,02,29,15,06,12.90
2012,02,29,15,07,17.70
2012,02,29,15,08,17.70
2012,02,29,15,09,8.10
2012,02,29,15,10,17.70
2012,02,29,15,11,17.70
2012,02,29,15,12,16.10
2012,02,29,15,13,14.50
2012,02,29,15,14,12.90
2012,02,29,15,15,17.70
2012,02,29,15,16,17.70
2012,02,29,15,17,17.70
2012,02,29,15,18,19.30
2012,02,29,15,19,20.90
2012,02,29,15,20,14.50
2012,02,29,15,21,20.90
2012,02,29,15,22,11.30
2012,02,29,15,23,9.60
2012,02,29,15,24,11.30
2012,02,29,15,25,16.10
2012,02,29,15,26,9.60
2012,02,29,15,27,6.40
2012,02,29,15,28,9.60
2012,02,29,15,29,9.60
2012,02,29,15,30,6.40
2012,02,29,15,31,12.90
2012,02,29,15,32,12.90
2012,02,29,15,33,16.10
2012,02,29,15,34,9.60
2012,02,29,15,35,11.30
2012,02,29,15,36,11.30
2012,02,29,15,37,9.60
2012,02,29,15,38,8.10
2012,02,29,15,39,4.80
2012,02,29,15,40,3.20
2012,02,29,15,41,8.10
2012,02,29,15,42,12.90
2012,02,29,15,43,12.90
2012,02,29,15,44,11.30
2012,02,29,15,45,8.10
2012,02,29,15,46,6.40
2012,02,29,15,47,8.10
2012,02,29,15,48,9.60
2012,02,29,15,49,11.30
2012,02,29,15,50,11.30
2012,02,29,15,51,6.40
2012,02,29,15,52,8.10
2012,02,29,15,53,9.60
2012,02,29,15,54,6.40
2012,02,29,15,55,6.40
2012,02,29,15,56,14.50
2012,02,29,15,57,16.10
2012,02,29,15,58,9.60
2012,02,29,15,59,9.60
2012,02,29,16,00,11.30
2012,02,29,16,01,8.10
2012,02,29,16,02,11.30
2012,02,29,16,03,12.90
2012,02,29,16,04,14.50
2012,02,29,16,05,9.60
2012,02,29,16,06,8.10
2012,02,29,16,07,9.60
2012,02,29,16,08,9.60
2012,02,29,16,09,11.30
2012,02,29,16,10,9.60
2012,02,29,16,11,12.90
2012,02,29,16,12,9.60
2012,02,29,16,13,9.60
2012,02,29,16,14,8.10
2012,02,29,16,15,6.40
2012,02,29,16,16,9.60
2012,02,29,16,17,9.60
2012,02,29,16,18,6.40
2012,02,29,16,19,9.60
2012,02,29,16,20,8.10
2012,02,29,16,21,8.10
2012,02,29,16,22,9.60
2012,02,29,16,23,11.30
2012,02,29,16,24,9.60
2012,02,29,16,25,9.60
2012,02,29,16,26,8.10
2012,02,29,16,27,8.10
2012,02,29,16,28,4.80
2012,02,29,16,29,4.80
2012,02,29,16,30,14.50
2012,02,29,16,31,9.60
2012,02,29,16,32,11.30
2012,02,29,16,33,12.90
2012,02,29,16,34,9.60
2012,02,29,16,35,11.30
2012,02,29,16,36,9.60
2012,02,29,16,37,12.90
2012,02,29,16,38,11.30
2012,02,29,16,39,11.30
2012,02,29,16,40,9.60
2012,02,29,16,41,11.30
2012,02,29,16,42,8.10
2012,02,29,16,43,9.60
2012,02,29,16,44,9.60
2012,02,29,16,45,9.60
2012,02,29,16,46,6.40
2012,02,29,16,47,6.40
2012,02,29,16,48,6.40
2012,02,29,16,49,4.80
2012,02,29,16,50,6.40
2012,02,29,16,51,4.80
2012,02,29,16,52,4.80
2012,02,29,16,53,6.40
2012,02,29,16,54,4.80
2012,02,29,16,55,8.10
2012,02,29,16,56,4.80
2012,02,29,16,57,6.40
2012,02,29,16,58,4.80
2012,02,29,16,59,8.10
2012,02,29,17,00,6.40
2012,02,29,17,01,8.10
2012,02,29,17,02,6.40
2012,02,29,17,03,6.40
2012,02,29,17,04,6.40
2012,02,29,17,05,6.40
2012,02,29,17,06,6.40
2012,02,29,17,07,8.10
2012,02,29,17,08,6.40
2012,02,29,17,09,6.40
2012,02,29,17,10,8.10
2012,02,29,17,11,6.40
2012,02,29,17,12,4.80
2012,02,29,17,13,6.40
2012,02,29,17,14,6.40
2012,02,29,17,16,3.20
2012,02,29,17,17,3.20
2012,02,29,17,19,1.60
2012,02,29,17,20,1.60
2012,02,29,17,21,1.60
2012,02,29,17,22,3.20
2012,02,29,17,23,1.60
2012,02,29,17,24,1.60
2012,02,29,17,25,1.60
2012,02,29,17,28,1.60
2012,02,29,17,29,1.60
2012,02,29,17,30,1.60
2012,02,29,17,32,3.20
2012,02,29,17,33,3.20
2012,02,29,17,34,4.80
2012,02,29,17,35,4.80
2012,02,29,17,36,1.60
2012,02,29,17,37,1.60
2012,02,29,17,38,3.20
2012,02,29,17,39,3.20
2012,02,29,17,40,1.60
2012,02,29,17,42,1.60
2012,02,29,17,43,3.20
2012,02,29,17,44,3.20
2012,02,29,17,45,1.60
2012,02,29,17,46,3.20
2012,02,29,17,47,1.60
2012,02,29,17,48,1.60
2012,02,29,17,49,1.60
2012,02,29,17,58,1.60
2012,02,29,17,59,1.60
2012,02,29,18,00,3.20
2012,02,29,18,01,1.60
2012,02,29,18,02,4.80
2012,02,29,18,03,4.80
2012,02,29,18,04,3.20
2012,02,29,18,05,3.20
2012,02,29,18,06,3.20
2012,02,29,18,07,3.20
2012,02,29,18,08,3.20
2012,02,29,18,09,3.20
2012,02,29,18,10,1.60
2012,02,29,18,11,1.60
2012,02,29,18,12,3.20
2012,02,29,18,13,1.60
2012,02,29,18,14,1.60
2012,02,29,18,15,3.20
2012,02,29,18,16,3.20
2012,02,29,18,17,4.80
2012,02,29,18,18,4.80
2012,02,29,18,19,4.80
2012,02,29,18,20,6.40
2012,02,29,18,21,4.80
2012,02,29,18,22,6.40
2012,02,29,18,23,6.40
2012,02,29,18,24,6.40
2012,02,29,18,25,6.40
2012,02,29,18,26,4.80
2012,02,29,18,27,6.40
2012,02,29,18,28,4.80
2012,02,29,18,29,3.20
2012,02,29,18,30,4.80
2012,02,29,18,31,4.80
2012,02,29,18,32,6.40
2012,02,29,18,33,4.80
2012,02,29,18,34,4.80
2012,02,29,18,35,4.80
2012,02,29,18,36,6.40
2012,02,29,18,37,8.10
2012,02,29,18,38,3.20
2012,02,29,18,39,4.80
2012,02,29,18,40,3.20
2012,02,29,18,41,1.60
2012,02,29,18,42,1.60
2012,02,29,18,43,4.80
2012,02,29,18,44,6.40
2012,02,29,18,45,4.80
2012,02,29,18,46,4.80
2012,02,29,18,47,4.80
2012,02,29,18,48,4.80
2012,02,29,18,49,4.80
2012,02,29,18,50,3.20
2012,02,29,18,52,1.60
2012,02,29,18,53,1.60
2012,02,29,18,54,1.60
2012,02,29,18,55,1.60
2012,02,29,18,56,1.60
2012,02,29,18,58,1.60
2012,02,29,19,02,1.60
2012,02,29,19,03,3.20
2012,02,29,19,04,3.20
2012,02,29,19,05,1.60
2012,02,29,19,32,3.20
2012,02,29,19,33,4.80
2012,02,29,19,36,1.60
2012,02,29,19,37,4.80
2012,02,29,19,38,3.20
2012,02,29,19,39,6.40
2012,02,29,19,40,6.40
2012,02,29,19,41,4.80
2012,02,29,19,42,11.30
2012,02,29,19,43,11.30